^^
Saratoga-Weather Station Historical Data
Daily Summary for June 19, 2021 Units:  English    Metric   Both
Daily Weekly Monthly Yearly Custom
  High: Low: Average:
Temperature: 70.3 °F 62.6 °F 65.8 °F
Dew Point: 62.1 °F 59.4 °F 60.4 °F
Humidity: 89% 75% 83%
Wind Speed: 4.9mph 0mph 0.6mph
Wind Gust: 6mph - -
Wind- - SSW
Pressure: 30.1 in 30.1 in -
Precipitation: 0 in    
Historical Graphs
 
 
Tabular Data for June 19, 2021
Time Temperature Dew Point Pressure Wind Wind Speed Wind Gust Humidity Rainfall Rate (Hourly) solar
00:00 70.3 °F 62.1 °F 30.1 in ESE 0.9 mph 4 mph 75% 0 in 0 W/m2
00:05 70 °F 61.7 °F 30.1 in SE 0.9 mph 1 mph 75% 0 in 0 W/m2
00:10 69.6 °F 61.7 °F 30.1 in SE 0.9 mph 1 mph 76% 0 in 0 W/m2
00:15 69.4 °F 61.5 °F 30.1 in Calm     76% 0 in 0 W/m2
00:20 69.3 °F 61.7 °F 30.1 in SE 0.9 mph 2 mph 77% 0 in 0 W/m2
00:25 68.9 °F 61.3 °F 30.1 in Calm   2 mph 77% 0 in 0 W/m2
00:30 68.5 °F 61.3 °F 30.1 in Calm   1 mph 78% 0 in 0 W/m2
00:35 68.4 °F 61.5 °F 30.1 in East 2.9 mph 4 mph 79% 0 in 0 W/m2
00:40 68.4 °F 61.5 °F 30.1 in East 0.9 mph 2 mph 79% 0 in 0 W/m2
00:45 68.2 °F 61.3 °F 30.1 in Calm   4 mph 79% 0 in 0 W/m2
00:50 68 °F 61.5 °F 30.1 in East 0.9 mph 1 mph 80% 0 in 0 W/m2
00:55 67.8 °F 61.3 °F 30.1 in Calm   2 mph 80% 0 in 0 W/m2
01:00 67.6 °F 61.2 °F 30.1 in SSW 0.9 mph 2 mph 80% 0 in 0 W/m2
01:05 67.5 °F 61.3 °F 30.1 in SW 0.9 mph 3 mph 81% 0 in 0 W/m2
01:11 67.6 °F 61.5 °F 30.1 in Calm   1 mph 81% 0 in 0 W/m2
01:16 67.6 °F 61.5 °F 30.1 in SW 0.9 mph 2 mph 81% 0 in 0 W/m2
01:21 67.6 °F 61.5 °F 30.1 in Calm   1 mph 81% 0 in 0 W/m2
01:26 67.6 °F 61.2 °F 30.1 in WNW 0.9 mph 2 mph 80% 0 in 0 W/m2
01:31 67.8 °F 61.3 °F 30.1 in Calm   5 mph 80% 0 in 0 W/m2
01:36 68.2 °F 61.3 °F 30.1 in SSW 0.9 mph 2 mph 79% 0 in 0 W/m2
01:41 68.2 °F 61.3 °F 30.1 in South 0.9 mph 5 mph 79% 0 in 0 W/m2
01:46 68.2 °F 61.3 °F 30.1 in Calm   3 mph 79% 0 in 0 W/m2
01:51 68.2 °F 61.3 °F 30.1 in SE 4.9 mph 5 mph 79% 0 in 0 W/m2
01:56 68.2 °F 61.3 °F 30.1 in SSE 0.9 mph 1 mph 79% 0 in 0 W/m2
02:01 67.8 °F 61 °F 30.1 in Calm   1 mph 79% 0 in 0 W/m2
02:06 67.8 °F 61.3 °F 30.1 in Calm   1 mph 80% 0 in 0 W/m2
02:11 67.8 °F 61.3 °F 30.1 in SE 0.9 mph 1 mph 80% 0 in 0 W/m2
02:16 67.6 °F 61.2 °F 30.1 in Calm   2 mph 80% 0 in 0 W/m2
02:21 67.5 °F 61.2 °F 30.1 in Calm   2 mph 80% 0 in 0 W/m2
02:26 67.5 °F 61.3 °F 30.1 in NE 0.9 mph 3 mph 81% 0 in 0 W/m2
02:31 67.5 °F 61.2 °F 30.1 in Calm   3 mph 80% 0 in 0 W/m2
02:36 67.5 °F 61.2 °F 30.1 in Calm   1 mph 80% 0 in 0 W/m2
02:41 67.6 °F 61.2 °F 30.1 in Calm   2 mph 80% 0 in 0 W/m2
02:46 67.5 °F 61.2 °F 30.1 in Calm   1 mph 80% 0 in 0 W/m2
02:51 67.5 °F 61.2 °F 30.1 in East 0.9 mph 2 mph 80% 0 in 0 W/m2
02:56 67.5 °F 61.2 °F 30.1 in Calm   1 mph 80% 0 in 0 W/m2
03:01 67.1 °F 61.2 °F 30.1 in South 2 mph 2 mph 81% 0 in 0 W/m2
03:06 66.9 °F 61 °F 30.1 in Calm   1 mph 81% 0 in 0 W/m2
03:11 66.7 °F 60.8 °F 30.1 in Calm   1 mph 81% 0 in 0 W/m2
03:16 66.6 °F 60.6 °F 30.1 in Calm   1 mph 81% 0 in 0 W/m2
03:21 66.6 °F 61 °F 30.1 in North 0.9 mph 3 mph 82% 0 in 0 W/m2
03:26 66.6 °F 61 °F 30.1 in North 4 mph 4 mph 82% 0 in 0 W/m2
03:31 66.6 °F 61 °F 30.1 in NW 0.9 mph 1 mph 82% 0 in 0 W/m2
03:36 66.4 °F 60.8 °F 30.1 in Calm     82% 0 in 0 W/m2
03:41 66 °F 60.6 °F 30.1 in Calm   3 mph 83% 0 in 0 W/m2
03:46 66 °F 60.6 °F 30.1 in Calm   4 mph 83% 0 in 0 W/m2
03:51 66 °F 60.6 °F 30.1 in WNW 0.9 mph 6 mph 83% 0 in 0 W/m2
03:56 66 °F 60.6 °F 30.1 in Calm   2 mph 83% 0 in 0 W/m2
04:01 66 °F 60.6 °F 30.1 in East 0.9 mph 3 mph 83% 0 in 0 W/m2
04:06 65.8 °F 60.6 °F 30.1 in NW 2 mph 3 mph 83% 0 in 0 W/m2
04:11 65.8 °F 60.6 °F 30.1 in West 0.9 mph 1 mph 83% 0 in 0 W/m2
04:16 65.7 °F 60.4 °F 30.1 in SW 0.9 mph 3 mph 83% 0 in 0 W/m2
04:21 65.5 °F 60.3 °F 30.1 in Calm   2 mph 83% 0 in 0 W/m2
04:26 65.5 °F 60.3 °F 30.1 in Calm   2 mph 83% 0 in 0 W/m2
04:31 65.3 °F 60.3 °F 30.1 in Calm   2 mph 84% 0 in 0 W/m2
04:36 65.1 °F 60.1 °F 30.1 in West 0.9 mph 3 mph 84% 0 in 0 W/m2
04:41 65.1 °F 60.1 °F 30.1 in Calm   1 mph 84% 0 in 0 W/m2
04:46 64.9 °F 59.9 °F 30.1 in WSW 0.9 mph 3 mph 84% 0 in 0 W/m2
04:51 64.8 °F 60.1 °F 30.1 in NW 0.9 mph 1 mph 85% 0 in 0 W/m2
04:56 64.8 °F 60.1 °F 30.1 in West 0.9 mph 2 mph 85% 0 in 0 W/m2
05:01 64.6 °F 59.9 °F 30.1 in Calm   1 mph 85% 0 in 0 W/m2
05:06 64.2 °F 59.5 °F 30.1 in NW 0.9 mph 2 mph 85% 0 in 0 W/m2
05:11 64 °F 59.7 °F 30.1 in Calm   1 mph 86% 0 in 0 W/m2
05:16 63.9 °F 59.5 °F 30.1 in Calm   2 mph 86% 0 in 0 W/m2
05:21 63.9 °F 59.5 °F 30.1 in Calm     86% 0 in 0 W/m2
05:26 63.7 °F 59.7 °F 30.1 in Calm   2 mph 87% 0 in 0 W/m2
05:31 63.3 °F 59.4 °F 30.1 in Calm   1 mph 87% 0 in 0 W/m2
05:36 63.3 °F 59.7 °F 30.1 in Calm   1 mph 88% 0 in 0 W/m2
05:41 63.1 °F 59.5 °F 30.1 in Calm     88% 0 in 0 W/m2
05:46 63.1 °F 59.5 °F 30.1 in Calm   1 mph 88% 0 in 0 W/m2
05:51 63.1 °F 59.5 °F 30.1 in Calm   1 mph 88% 0 in 0 W/m2
05:56 63.1 °F 59.5 °F 30.1 in East 0.9 mph 1 mph 88% 0 in 5 W/m2
06:01 63 °F 59.4 °F 30.1 in Calm   2 mph 88% 0 in 9 W/m2
06:06 63 °F 59.7 °F 30.1 in Calm   2 mph 89% 0 in 11 W/m2
06:12 62.8 °F 59.5 °F 30.1 in Calm     89% 0 in 12 W/m2
06:17 62.8 °F 59.5 °F 30.1 in Calm     89% 0 in 16 W/m2
06:22 62.6 °F 59.4 °F 30.1 in Calm     89% 0 in 18 W/m2
06:27 62.8 °F 59.5 °F 30.1 in SSE 0.9 mph 1 mph 89% 0 in 21 W/m2
06:32 62.8 °F 59.5 °F 30.1 in NW 2 mph 2 mph 89% 0 in 23 W/m2
06:37 62.8 °F 59.5 °F 30.1 in Calm     89% 0 in 25 W/m2
06:42 62.8 °F 59.5 °F 30.1 in Calm   2 mph 89% 0 in 26 W/m2
06:47 63 °F 59.7 °F 30.1 in Calm   2 mph 89% 0 in 30 W/m2
06:52 63.1 °F 59.9 °F 30.1 in South 0.9 mph 1 mph 89% 0 in 32 W/m2
06:57 63.3 °F 59.7 °F 30.1 in Calm   2 mph 88% 0 in 35 W/m2
07:02 63.3 °F 59.7 °F 30.1 in Calm     88% 0 in 37 W/m2
07:07 63.3 °F 59.7 °F 30.1 in South 0.9 mph 1 mph 88% 0 in 39 W/m2
07:12 63.5 °F 59.5 °F 30.1 in Calm   1 mph 87% 0 in 40 W/m2
07:17 63.7 °F 59.7 °F 30.1 in Calm     87% 0 in 42 W/m2
07:22 63.9 °F 59.5 °F 30.1 in NW 2 mph 2 mph 86% 0 in 44 W/m2
07:27 64 °F 59.7 °F 30.1 in Calm     86% 0 in 47 W/m2
07:32 64.2 °F 59.9 °F 30.1 in West 0.9 mph 1 mph 86% 0 in 49 W/m2
07:37 64.4 °F 59.7 °F 30.1 in East 2 mph 3 mph 85% 0 in 51 W/m2
07:42 64.6 °F 59.9 °F 30.1 in ESE 2.9 mph 4 mph 85% 0 in 53 W/m2
07:47 64.8 °F 59.9 °F 30.1 in WNW 0.9 mph 2 mph 84% 0 in 54 W/m2
07:52 64.9 °F 59.9 °F 30.1 in NW 3 mph 3 mph 84% 0 in 62 W/m2
07:57 65.1 °F 60.1 °F 30.1 in NW 0.9 mph 3 mph 84% 0 in 98 W/m2
08:02 65.7 °F 60.4 °F 30.1 in WNW 0.9 mph 3 mph 83% 0 in 183 W/m2
08:07 65.8 °F 60.3 °F 30.1 in North 2 mph 3 mph 82% 0 in 104 W/m2
08:12 66.2 °F 60.6 °F 30.1 in Calm   2 mph 82% 0 in 70 W/m2
08:17 66.6 °F 60.6 °F 30.1 in Calm   5 mph 81% 0 in 67 W/m2
Juneau County Weather
Compliments of Weather Underground - 4 mb